Hourly Data Report for October 10, 2014

All times are specified in Local Standard Time (LST). Add 1 hour to adjust for Daylight Saving Time where and when it is observed.

OTTAWA INTL A
ONTARIO

45°19'00.000" N
75°40'00.000" W
114.90 m
6106001
71628
YOW

Download Data

Hourly Data (October 2014)
Hourly Data Report for October 10, 2014
Temp Definition
°C
Dew Point Temp Definition
°C
Rel Hum Definition
%
Wind Dir Definition
10's deg

Wind Spd Definition
km/h
Visibility Definition
km
Stn Press Definition
kPa
Hmdx Definition


Wind Chill Definition


Weather Definition


TIME
00:00 Legend Double Dagger 4.2 1.7 84 23 14 24.1 100.08     LegendNANA
01:00 Legend Double Dagger 4.9 2.3 83 23 13 24.1 100.10     Cloudy
02:00 Legend Double Dagger 4.1 2.0 86 24 11 24.1 100.10     LegendNANA
03:00 Legend Double Dagger 3.3 1.8 90 22 12 24.1 100.12     LegendNANA
04:00 Legend Double Dagger 2.9 1.9 93 23 12 24.1 100.16     Clear
05:00 Legend Double Dagger 2.1 1.5 96 22 11 24.1 100.20     LegendNANA
06:00 Legend Double Dagger 2.8 2.2 96 22 10 24.1 100.25     LegendNANA
07:00 Legend Double Dagger 3.5 2.6 94 25 7 24.1 100.33     Mainly Clear
08:00 Legend Double Dagger 6.7 4.0 83 29 8 24.1 100.35     LegendNANA
09:00 Legend Double Dagger 9.2 3.8 69 27 21 24.1 100.38     LegendNANA
10:00 Legend Double Dagger 7.9 3.2 72 25 21 24.1 100.42     Mostly Cloudy
11:00 Legend Double Dagger 8.4 3.5 71 27 16 24.1 100.41     LegendNANA
12:00 Legend Double Dagger 9.1 2.7 64 27 24 24.1 100.42     LegendNANA
13:00 Legend Double Dagger 9.3 2.7 63 25 22 24.1 100.42     Cloudy
14:00 Legend Double Dagger 9.5 2.8 63 26 14 24.1 100.43     LegendNANA
15:00 Legend Double Dagger 10.0 2.4 59 27 19 24.1 100.45     LegendNANA
16:00 Legend Double Dagger 9.8 2.4 60 29 8 24.1 100.46     Mainly Clear
17:00 Legend Double Dagger 8.2 3.1 70 31 6 24.1 100.50     LegendNANA
18:00 Legend Double Dagger 8.2 4.1 75 7 5 24.1 100.49     LegendNANA
19:00 Legend Double Dagger 3.9 2.3 89 11 6 24.1 100.54     Mainly Clear
20:00 Legend Double Dagger 5.8 3.0 82 9 3 24.1 100.56     LegendNANA
21:00 Legend Double Dagger 6.7 4.2 84 5 3 24.1 100.57     LegendNANA
22:00 Legend Double Dagger 5.7 3.9 88 13 4 24.1 100.59     Rain
23:00 Legend Double Dagger 6.6 3.8 82 4 3 24.1 100.57     LegendNANA

Notes on Data Quality.

Legend

  • E = Estimated
  • M = Missing
  • NA = Not Available
  • ‡ = Partner data that is not subject to review by the National Climate Archives
Date modified: